Zurück zum Katalog

FREGAT DEB

AktivLEO
NORAD 45648·DEBRIS·🇷🇺 Russia

Gestartet Jul 18, 2011 von Baikonur Cosmodrome

Loading…

Nächste Überflüge (nächste 24 Stunden)

TLE

AktuellSource: Space-Track

Epoche: Sep 14, 2026, 06:35 UTC

1 45648U 11037AQ  26257.27464405  .00105678  00000-0  38852-2 0  9998
2 45648  51.3911 219.4093 0766576 304.1416  48.9066 14.01069473282610

Verfolge FREGAT DEB in Echtzeit mit AllMySat

Download on the App Store